(42) Isis
ephemeris date magn radius delta ra dec elong phase
Today21 Nov 202411.91.911 AU2.046 AU20h44m-25°53'68.1°28.7°
Opposition25 Dec 202511.32.736 AU1.753 AU06h20m+25°42'177.4°0.9°
(42) Isis - 2024-11-21
astro.vanbuitenen.nl


 
-1 year
-1 month
-1 day
Now
+1 day
+1 month
+1 year

The interactive orbit chart above shows the body's path through the solar system and its position at the given date. Green and blue lines are shown perpendicular to the ecliptic plane: Green if the path is above the ecliptic plane, blue if it is below. (Left-click and drag to rotate the view; Right-click and drag to move the view; Use scroll wheel to zoom in our out.)

The orbital elements of Isis are:

            e (Eccentricity)                : 0.2219832
            a (Semimajor axis)              : 2.4425555
            i (Inclination)                 : 8.51124
            Ω (Longitude of ascending node) : 84.16610
            ω (Argument of perihelion)      : 237.25613
            M (Mean anomaly)                : 359.93319
            Epoch                           : 2024 Oct 17

            L (Longitude of perihelion)     : 141.13291
            B (Latitude of perihelion)      : -7.15103
            P (Orbital period in years)     : 3.82            
        

The light curve chart below shows the estimated development of the minor planet's magnitude.


The all-sky chart below shows the path of the minor planet over the same period as the light curve. The current position is marked yellow.





The following chart shows the path of the minor planet in the next few days. The field of view is optimized for (~10x50) binoculars and finderscopes. A more printer-friendly version of the same chart can be found below.




Ephemerides:
Date       Time       RA (2000)    DEC (2000)    delta   radius  elong  phase   PA    magn
2024-11-21 00:00 UT   20 44 44.4   -25 53 03     2.046    1.911   68.1   28.7    78   11.9 
2024-11-21 12:41 UT   20 45 56.1   -25 48 05     2.051    1.912   67.8   28.6    78   11.9 
2024-11-22 00:00 UT   20 47 00.1   -25 43 37     2.056    1.912   67.6   28.5    78   11.9 
2024-11-23 00:00 UT   20 49 15.8   -25 34 04     2.066    1.913   67.1   28.4    78   11.9 
2024-11-24 00:00 UT   20 51 31.6   -25 24 23     2.076    1.913   66.7   28.3    77   12.0 
2024-11-25 00:00 UT   20 53 47.5   -25 14 35     2.085    1.914   66.2   28.2    77   12.0 
2024-11-26 00:00 UT   20 56 03.5   -25 04 40     2.095    1.915   65.7   28.0    77   12.0 
2024-11-27 00:00 UT   20 58 19.5   -24 54 37     2.105    1.915   65.3   27.9    77   12.0 
2024-11-28 00:00 UT   21 00 35.5   -24 44 27     2.115    1.916   64.8   27.8    77   12.0 
2024-11-29 00:00 UT   21 02 51.6   -24 34 09     2.125    1.917   64.4   27.6    77   12.0 
2024-11-30 00:00 UT   21 05 07.7   -24 23 45     2.135    1.918   63.9   27.5    77   12.0 
2024-12-01 00:00 UT   21 07 23.8   -24 13 13     2.145    1.918   63.4   27.4    77   12.0 
2024-12-02 00:00 UT   21 09 39.9   -24 02 34     2.154    1.919   63.0   27.2    77   12.0 
2024-12-03 00:00 UT   21 11 56.0   -23 51 49     2.164    1.920   62.5   27.1    77   12.0 
2024-12-04 00:00 UT   21 14 12.0   -23 40 56     2.174    1.921   62.1   27.0    76   12.0 
2024-12-05 00:00 UT   21 16 28.1   -23 29 57     2.184    1.922   61.6   26.8    76   12.0 
2024-12-06 00:00 UT   21 18 44.0   -23 18 51     2.193    1.923   61.2   26.7    76   12.0 


    Terminology:
            
    delta:  distance between minor planet and earth in AU
    radius: distance between minor planet and sun in AU
    magn:   magnitude (brightness) estimate    
    ra:     right ascension in hours (24h = 360deg)
    dec:    declination in degrees
    elong:  elongation in degrees (angle sun-earth-minor planet)    
    phase:  phase angle in degrees (angle sun-minor planet-earth)        
    AU:     Astronomical Unit (mean distance between earth and sun: 149597870.7 km
    

Orbital elements provided by the MPC (Minor Planet Center).
Calculations by a modified version of AAPlus, a C# implementation of the AA+ project by PJ Naughter from the algorithms presented in the book "Astronomical Algorithms" by Jean Meeus.
NGC2000 dso catalog and star labels from VizieR as provided by the Strasbourg astronomical Data Center.
Tycho2 catalog from the ESO archive.